EHI
0 0 0 0 0 0 0 0 0 0 0 0 0 0 0 0 0 0 0 0 0 0 0 0 0 0 0 0 0 0 0 0 0 0 0 0 0 0
0 0 0 0 0 0 0 0 0 0 0 0 0 0 0 0 0 0 0 0 0 0 0 0 0 0 0 0 0 0 0 0 0 0 0 0 0 0
0 0 0 0 0 0 0 0 0 0 0 0 0 0 0 0 0 0 0 0 0 0 0 0 0 0 0 0 0 0 0 0 0 0 0 0 0 0
0 0 0 0 0 0 0 0 0 0 0 0 0 0 0 0 0 0 0 0 0 0 0 0 0 0 0 0 0 0 0 0 0 0 0 0 0 0
0 0 0 0 0 0 0 0 0 0 0 0 0 0 0 0 0 0 0 0 0 0 0 0 0 0 0 0 0 0 0 0 0 0 0 0 0 0
0 0 0 0 0 0 0 0 0 0 0 0 0 0 0 0 0 0 0 0 0 0 0 0 0 0 0 0 0 0 0 0 0 0 0 0 0 0
0 0 0 0 0 0 0 0 0 0 0 0 0 0 0 0 0 0 0 0 0 0 0 0 0 0 0 0 0 0 0 0 0 0 0 0 0 0
0 0 0 0 0 0 0 0 0 0 0 0 0 0 0 0 0 0 0 0 0 0 0 0 0 0 0 0 0 0 0 0 0 0 0 0 0 0
0 0 0 0 0 0 0 0 0 0 0 0 0 0 0 0 0 0 0 0 0 0 0 0 0 0 0 0 0 0 0 0 0 0 0 0 0 0
1 1 1 0 0 0 0 0 0 0 0 0 0 0 0 0 0 0 0 0 0 0 0 0 0 0 0 0 0 0 0 0 0 0 0 0 0 0
2 2 1 0 0 0 0 0 0 0 0 0 0 0 0 0 0 0 0 0 0 0 0 0 0 0 0 0 0 0 0 0 0 0 0 0 0 0
3 3 2 0 0 0 0 0 0 0 0 0 0 0 0 0 0 0 0 0 0 0 0 0 0 0 0 0 0 0 0 0 0 0 0 0 0 0
3 3 2 1 0 0 0 0 0 0 0 0 0 0 0 0 0 0 0 0 0 0 0 0 0 0 0 0 0 0 0 0 0 0 0 0 0 0
2 2 2 1 0 0 0 0 0 0 0 0 0 0 0 0 0 0 0 0 0 0 0 0 0 0 0 0 0 0 0 0 0 0 0 0 0 0
1 1 1 0 0 0 0 0 0 0 0 0 0 0 0 0 0 0 0 0 0 0 0 0 0 0 0 0 0 0 0 0 0 0 0 0 0 0
0 0 0 0 0 0 0 0 0 0 0 0 0 0 0 0 0 0 0 0 0 0 0 0 0 0 0 0 0 0 0 0 0 0 0 0 0 0
0 0 0 0 0 0 0 0 0 0 0 0 0 0 0 0 0 0 0 0 0 0 0 0 0 0 0 0 0 0 0 0 0 0 0 0 0 0
0 0 0 0 0 0 0 0 0 0 0 0 0 0 0 0 0 0 0 0 0 0 0 0 0 0 0 0 0 0 0 0 0 0 0 0 0 0
0 0 0 0 0 0 0 0 0 0 0 0 0 0 0 0 0 0 0 0 0 0 0 0 0 0 0 0 0 0 0 0 0 0 0 0 0 0
0 0 0 0 0 0 0 0 0 0 0 0 0 0 0 0 0 0 0 0 0 0 0 0 0 0 0 0 0 0 0 0 0 0 0 0 0 0
0 0 0 0 0 0 0 0 0 0 0 0 0 0 0 0 0 0 0 0 0 0 0 0 0 0 0 0 0 0 0 0 0 0 0 0 0 0
0 0 0 0 0 0 0 0 0 0 0 0 0 0 0 0 0 0 0 0 0 0 0 0 0 0 0 0 0 0 0 0 0 0 0 0 0 0
0 0 0 0 0 0 0 0 0 0 0 0 0 0 0 0 0 0 0 0 0 0 0 0 0 0 0 0 0 0 0 0 0 0 0 0 0 0
Wind_Speed
5 5 4 3 4 4 3 4 3 2 3 3 3 2 3 3 5 5 6 8 9 10 10 10 10 10 10 10 9 9 9 9 9 9 9 9 9 9
4 5 4 3 3 3 4 3 3 3 3 3 3 2 2 3 5 5 6 7 9 10 10 10 10 11 11 11 11 10 10 10 10 10 10 10 10 10
5 5 5 4 4 3 3 3 4 4 4 4 2 2 3 3 3 4 4 5 5 9 10 10 11 11 11 11 11 11 11 11 11 11 11 11 11 11
6 6 6 4 5 4 4 4 4 4 4 5 3 2 4 3 3 3 3 4 5 7 9 10 11 11 11 11 11 11 12 12 12 12 12 12 12 12
6 6 6 6 6 5 5 4 4 4 3 3 3 2 2 1 2 3 3 3 4 5 7 9 10 10 11 11 11 12 12 12 12 12 12 12 12 11
5 6 6 7 7 6 5 5 4 3 3 3 2 2 2 2 1 2 3 2 3 3 4 5 6 8 10 11 11 12 12 13 13 13 12 12 12 11
4 5 5 6 7 6 5 5 5 4 3 3 2 2 2 2 3 2 3 3 3 2 3 3 3 4 5 6 8 10 11 12 12 12 12 12 12 11
4 4 4 5 7 8 8 7 7 6 5 4 3 3 4 4 3 2 2 2 3 1 2 2 1 3 4 3 5 6 7 8 9 10 10 11 11 11
4 4 3 4 5 4 5 5 5 5 6 5 4 4 4 4 3 3 4 4 4 1 1 3 2 3 3 3 4 4 5 5 6 6 7 8 9 9
3 4 3 3 3 4 3 3 2 2 4 4 4 4 4 4 4 4 3 3 2 1 2 3 2 3 3 3 3 4 4 4 4 4 5 5 6 7
2 2 2 2 2 4 4 3 2 2 1 2 2 1 1 2 1 1 1 2 3 2 1 2 2 2 2 3 2 2 3 3 4 4 4 5 5 5
0 0 1 1 1 3 3 3 3 3 1 1 0 1 1 2 1 1 2 2 2 2 1 1 2 2 2 1 1 2 2 3 4 4 4 5 4 3
0 0 1 2 1 1 2 2 3 2 1 1 0 1 1 1 1 0 1 1 2 2 1 1 1 1 2 3 2 2 2 3 3 3 4 4 4 2
1 1 1 3 3 2 1 1 1 1 1 1 1 1 2 2 2 1 1 0 1 2 2 1 1 2 2 3 3 3 2 2 3 3 3 3 3 3
3 4 4 5 4 4 4 3 2 2 2 2 1 1 1 2 2 1 2 1 1 1 2 2 2 2 2 3 3 3 3 2 3 3 3 3 3 3
3 5 6 6 5 6 5 4 3 3 2 2 1 2 2 2 2 2 2 2 2 2 3 3 3 2 2 2 2 3 3 3 4 4 4 4 3 3
4 4 4 5 5 5 5 5 5 4 4 3 3 3 3 3 3 3 2 2 2 3 4 3 3 2 2 2 2 3 3 3 4 4 4 4 4 4
7 6 6 5 5 5 5 5 5 5 4 4 4 4 4 4 4 4 3 3 3 3 3 4 4 3 2 1 1 3 3 4 4 4 4 4 5 4
8 6 5 5 5 5 5 5 5 4 4 4 4 4 4 4 4 4 4 4 3 3 3 3 3 3 4 4 3 2 4 4 5 4 4 4 5 5
6 6 5 5 4 5 5 4 4 4 4 4 4 4 4 4 4 4 4 4 3 3 3 3 3 3 3 4 4 4 4 4 4 5 5 5 5 5
6 5 5 5 4 4 4 4 4 4 5 4 4 4 4 4 4 3 3 4 3 3 4 4 4 6 3 2 3 4 4 4 5 5 5 5 5 4
5 5 5 5 4 4 4 4 4 4 5 4 4 4 4 4 3 4 3 3 3 3 4 4 5 4 3 3 4 5 5 6 5 5 5 4 4 4
5 5 5 5 4 4 4 4 5 4 4 4 4 4 4 3 3 3 3 3 3 4 4 4 4 3 4 4 4 5 6 7 5 5 5 4 5 7
Wind_Direction
211 207 211 213 203 205 191 181 180 223 261 257 254 243 229 226 227 221 228 231 229 230 231 233 232 231 232 233 235 237 238 238 239 241 243 245 246 248
204 205 213 214 209 202 200 201 196 198 239 253 243 257 247 241 227 225 231 234 235 233 233 234 234 233 233 234 234 235 238 240 242 243 243 243 243 244
209 208 218 209 209 206 200 201 202 194 230 264 249 249 237 247 246 235 235 233 238 235 235 235 235 236 236 236 236 236 237 238 240 241 241 241 241 241
213 208 220 216 214 210 203 208 210 203 211 248 259 243 242 252 254 252 250 242 242 242 237 238 238 238 238 238 238 239 239 240 240 240 241 241 241 241
214 210 219 213 218 213 207 210 214 211 209 229 258 261 262 269 265 266 261 260 258 253 243 241 240 241 243 242 241 241 241 241 241 241 240 240 241 241
217 217 221 218 217 210 209 209 206 204 205 222 249 267 270 270 254 262 271 255 261 270 257 248 244 243 245 245 244 244 243 242 242 241 240 239 238 239
225 222 223 220 217 210 206 202 197 200 201 211 231 246 253 246 244 240 253 270 262 250 262 260 255 257 256 252 250 250 249 248 246 243 242 241 240 240
223 228 226 225 225 219 215 204 193 198 203 204 218 229 246 244 247 237 244 259 272 240 232 268 248 263 266 262 266 262 257 256 255 250 245 243 241 239
219 227 236 233 218 215 211 206 209 212 203 198 210 229 242 240 231 237 230 233 246 259 219 270 268 268 278 286 279 275 274 271 267 263 256 250 246 243
220 222 226 233 218 195 187 187 204 215 212 208 216 238 250 254 233 238 239 237 252 271 214 258 274 274 286 285 293 285 287 287 282 275 269 264 257 251
230 226 211 215 217 185 178 194 218 239 218 180 195 233 291 309 274 217 225 229 263 270 214 247 277 282 286 286 298 311 315 312 304 297 291 287 277 265
307 331 292 235 219 181 188 199 221 242 226 132 107 320 309 321 342 215 237 239 257 277 259 233 277 294 290 281 307 330 326 320 312 307 308 307 300 283
152 19 16 58 62 133 175 201 225 219 140 126 56 12 6 5 9 10 230 222 239 262 299 233 264 265 262 286 300 324 328 330 333 327 320 317 308 284
123 85 57 69 68 61 94 92 111 122 108 89 59 19 2 354 356 11 28 220 250 275 321 307 270 277 275 282 294 316 326 338 339 333 334 329 314 297
86 81 70 68 69 60 52 60 83 93 89 75 45 359 347 344 357 1 11 3 338 344 355 343 309 298 280 278 291 304 311 324 335 326 327 325 322 321
88 76 70 62 62 55 46 47 55 60 73 67 37 9 12 20 16 5 1 1 8 4 10 0 337 301 279 282 284 300 311 314 330 329 324 320 321 314
95 74 62 59 59 55 52 50 47 46 46 39 39 32 26 26 19 14 15 20 19 356 356 2 357 344 312 299 305 315 321 322 324 327 318 315 312 312
86 75 68 64 63 59 56 51 46 40 35 39 42 38 31 25 21 23 26 27 20 10 3 355 351 354 354 357 320 316 328 326 324 320 315 310 311 314
77 74 69 64 61 59 55 51 44 35 35 42 43 36 35 34 31 26 23 23 19 9 1 359 1 359 348 338 342 347 324 320 319 318 316 310 305 312
70 73 70 66 61 59 55 51 46 42 40 38 37 31 28 30 30 27 24 19 8 359 358 1 358 348 328 317 312 318 323 313 315 315 315 308 298 296
70 68 64 64 62 59 56 51 48 43 37 33 31 26 23 27 28 24 23 15 7 360 354 347 336 322 305 300 303 314 325 321 302 300 310 310 315 317
73 71 65 62 60 58 57 53 49 43 35 32 24 20 17 19 20 14 8 2 354 343 332 332 337 340 339 329 322 317 320 327 325 309 289 285 307 316
70 69 65 60 55 52 53 52 50 40 31 23 18 14 12 7 359 357 354 349 342 340 337 335 338 339 335 325 318 316 320 325 327 329 329 319 291 279